FW8496 Weather Reports


Display with metric or nautical units.
time (UTC)temp
F
wind
direction
speed
MPH
gust
MPH
rain 1hr
in
rain 24hr
in
rain mn
in
humidity
%
barometer
mb
20260906214046 95 276 3.0 12.0 0.00 0.00 0.00 17 1021.4
20260906213542 94 5 3.0 9.0 0.00 0.00 0.00 17 1021.5
20260906213055 94 313 2.0 9.0 0.00 0.00 0.00 17 1021.6
20260906212541 94 162 4.0 9.0 0.00 0.00 0.00 17 1021.6
20260906212042 94 247 3.0 9.0 0.00 0.00 0.00 17 1021.7
20260906211553 93 311 3.0 9.0 0.00 0.00 0.00 17 1021.7
20260906211041 92 146 1.0 7.0 0.00 0.00 0.00 18 1021.8
20260906210541 91 0 3.0 9.0 0.00 0.00 0.00 18 1021.9
20260906210105 90 255 4.0 10.0 0.00 0.00 0.00 19 1022.0
20260906205541 89 257 3.0 10.0 0.00 0.00 0.00 19 1022.0
20260906205041 89 271 6.0 12.0 0.00 0.00 0.00 19 1022.1
20260906204557 89 320 6.0 12.0 0.00 0.00 0.00 20 1022.2
20260906204043 89 312 4.0 11.0 0.00 0.00 0.00 19 1022.3
20260906203540 90 313 4.0 11.0 0.00 0.00 0.00 19 1022.4
20260906203050 90 329 3.0 11.0 0.00 0.00 0.00 19 1022.4
20260906202541 91 333 5.0 11.0 0.00 0.00 0.00 19 1022.4
20260906202044 91 274 3.0 16.0 0.00 0.00 0.00 19 1022.4
20260906201604 90 305 7.0 16.0 0.00 0.00 0.00 19 1022.5
20260906201043 90 303 7.0 12.0 0.00 0.00 0.00 19 1022.4
20260906200543 89 250 4.0 12.0 0.00 0.00 0.00 20 1022.5
20260906200059 89 39 6.0 14.0 0.00 0.00 0.00 19 1022.5
20260906195542 89 314 4.0 14.0 0.00 0.00 0.00 19 1022.6
20260906195042 88 286 4.0 15.0 0.00 0.00 0.00 20 1022.6
20260906194549 89 348 7.0 15.0 0.00 0.00 0.00 20 1022.7
20260906194043 89 313 2.0 13.0 0.00 0.00 0.00 20 1022.7
20260906193542 88 322 7.0 13.0 0.00 0.00 0.00 20 1022.8
20260906193051 87 298 4.0 13.0 0.00 0.00 0.00 21 1022.8
20260906192543 86 352 7.0 13.0 0.00 0.00 0.00 22 1022.9
20260906192043 86 325 4.0 11.0 0.00 0.00 0.00 20 1023.0
20260906191559 87 5 6.0 14.0 0.00 0.00 0.00 20 1023.1
20260906191042 87 299 7.0 14.0 0.00 0.00 0.00 20 1023.1
20260906190544 86 5 4.0 16.0 0.00 0.00 0.00 20 1023.2
20260906190140 86 319 8.0 16.0 0.00 0.00 0.00 21 1023.2
20260906185542 85 360 7.0 14.0 0.00 0.00 0.00 21 1023.3
20260906185044 85 11 5.0 14.0 0.00 0.00 0.00 21 1023.3
20260906184554 86 311 7.0 13.0 0.00 0.00 0.00 21 1023.4
20260906184042 86 333 6.0 13.0 0.00 0.00 0.00 21 1023.5
20260906183542 86 320 7.0 16.0 0.00 0.00 0.00 21 1023.5
20260906183059 85 162 9.0 16.0 0.00 0.00 0.00 21 1023.7
20260906182542 85 292 7.0 14.0 0.00 0.00 0.00 21 1023.7
20260906182043 85 348 5.0 12.0 0.00 0.00 0.00 23 1023.7
20260906181550 84 304 4.0 12.0 0.00 0.00 0.00 23 1023.9
20260906181043 84 310 4.0 16.0 0.00 0.00 0.00 23 1024.0
20260906180543 83 342 7.0 16.0 0.00 0.00 0.00 23 1024.1
20260906180056 83 338 9.0 16.0 0.00 0.00 0.00 24 1024.1
20260906175543 83 340 5.0 11.0 0.00 0.00 0.00 25 1024.3
20260906175043 82 15 4.0 14.0 0.00 0.00 0.00 26 1024.4
20260906174549 82 26 7.0 14.0 0.00 0.00 0.00 25 1024.4
20260906174043 81 336 5.0 13.0 0.00 0.00 0.00 27 1024.5
20260906173542 81 352 7.0 13.0 0.00 0.00 0.00 26 1024.6
20260906173057 81 337 5.0 14.0 0.00 0.00 0.00 27 1024.6
20260906172544 80 331 7.0 14.0 0.00 0.00 0.00 26 1024.6
20260906172043 80 14 8.0 13.0 0.00 0.00 0.00 27 1024.6
20260906171557 80 349 6.0 12.0 0.00 0.00 0.00 27 1024.8
20260906171044 80 37 7.0 13.0 0.00 0.00 0.00 27 1024.9
20260906170546 79 49 8.0 17.0 0.00 0.00 0.00 27 1024.8
20260906170053 78 329 8.0 17.0 0.00 0.00 0.00 28 1024.8
20260906165542 78 5 7.0 13.0 0.00 0.00 0.00 30 1024.8
20260906165042 77 5 8.0 13.0 0.00 0.00 0.00 30 1024.8
20260906164550 77 5 7.0 13.0 0.00 0.00 0.00 33 1024.8
20260906164043 76 348 8.0 12.0 0.00 0.00 0.00 34 1024.8
20260906163542 75 315 6.0 11.0 0.00 0.00 0.00 36 1024.8
20260906163106 74 46 6.0 12.0 0.00 0.00 0.00 36 1024.9
20260906162543 74 348 7.0 12.0 0.00 0.00 0.00 37 1025.0
20260906162042 73 23 5.0 12.0 0.00 0.00 0.00 38 1024.9
20260906161601 73 17 8.0 14.0 0.00 0.00 0.00 37 1025.0
20260906161043 73 346 7.0 14.0 0.00 0.00 0.00 38 1025.0
20260906160546 72 340 7.0 13.0 0.00 0.00 0.00 38 1025.0
20260906160058 72 5 5.0 13.0 0.00 0.00 0.00 38 1025.0
20260906155541 72 360 7.0 12.0 0.00 0.00 0.00 38 1024.9
20260906155041 72 45 5.0 14.0 0.00 0.00 0.00 40 1025.1
20260906154556 71 22 6.0 14.0 0.00 0.00 0.00 40 1025.0
20260906154044 71 327 8.0 13.0 0.00 0.00 0.00 41 1024.9
20260906153543 70 352 8.0 13.0 0.00 0.00 0.00 42 1024.9
20260906153053 69 26 8.0 13.0 0.00 0.00 0.00 43 1024.9
20260906152542 68 24 6.0 12.0 0.00 0.00 0.00 44 1024.9
20260906152041 68 349 7.0 11.0 0.00 0.00 0.00 45 1024.8
20260906151600 67 5 6.0 9.0 0.00 0.00 0.00 47 1024.8
20260906151042 66 351 5.0 10.0 0.00 0.00 0.00 48 1024.9
20260906150544 66 338 6.0 12.0 0.00 0.00 0.00 48 1024.9
20260906150057 67 319 5.0 12.0 0.00 0.00 0.00 48 1024.8
20260906145540 67 298 7.0 11.0 0.00 0.00 0.00 46 1024.8
20260906145043 67 341 5.0 10.0 0.00 0.00 0.00 47 1024.8
20260906144552 68 317 4.0 9.0 0.00 0.00 0.00 46 1024.7
20260906144041 68 331 6.0 9.0 0.00 0.00 0.00 45 1024.7
20260906143542 68 350 3.0 8.0 0.00 0.00 0.00 45 1024.6
20260906143054 68 346 3.0 9.0 0.00 0.00 0.00 45 1024.5
20260906142545 68 20 5.0 10.0 0.00 0.00 0.00 45 1024.6
20260906142042 67 35 5.0 10.0 0.00 0.00 0.00 45 1024.6
20260906141550 67 360 5.0 8.0 0.00 0.00 0.00 46 1024.5
20260906141041 66 34 4.0 8.0 0.00 0.00 0.00 48 1024.5
20260906140544 65 45 4.0 8.0 0.00 0.00 0.00 49 1024.6
20260906140100 65 32 2.0 7.0 0.00 0.00 0.00 51 1024.5
20260906135541 64 21 3.0 7.0 0.00 0.00 0.00 52 1024.5
20260906135041 64 34 3.0 7.0 0.00 0.00 0.00 53 1024.6
20260906134552 64 33 4.0 9.0 0.00 0.00 0.00 53 1024.5
20260906134041 63 45 4.0 9.0 0.00 0.00 0.00 53 1024.5
20260906133541 63 46 5.0 9.0 0.00 0.00 0.00 54 1024.4
20260906133109 62 50 5.0 9.0 0.00 0.00 0.00 55 1024.3
20260906132542 62 46 5.0 11.0 0.00 0.00 0.00 55 1024.2
20260906132041 62 50 6.0 11.0 0.00 0.00 0.00 55 1024.1
20260906131603 62 30 6.0 11.0 0.00 0.00 0.00 55 1024.0
20260906131041 62 32 6.0 12.0 0.00 0.00 0.00 55 1024.0
20260906130541 62 26 6.0 12.0 0.00 0.00 0.00 55 1024.0
20260906130111 62 35 6.0 10.0 0.00 0.00 0.00 55 1023.8
20260906125546 62 44 5.0 9.0 0.00 0.00 0.00 55 1023.8
20260906125042 62 24 5.0 9.0 0.00 0.00 0.00 55 1023.7
20260906124555 62 350 5.0 8.0 0.00 0.00 0.00 55 1023.8
20260906124043 62 352 5.0 8.0 0.00 0.00 0.00 55 1023.8
20260906123543 62 33 4.0 8.0 0.00 0.00 0.00 55 1023.8
20260906123054 62 32 4.0 8.0 0.00 0.00 0.00 54 1023.8
20260906122542 63 41 4.0 9.0 0.00 0.00 0.00 54 1023.7
20260906122043 63 360 4.0 9.0 0.00 0.00 0.00 54 1023.7
20260906121604 63 31 5.0 9.0 0.00 0.00 0.00 53 1023.6
20260906121046 64 336 5.0 9.0 0.00 0.00 0.00 52 1023.6
20260906120543 64 323 5.0 9.0 0.00 0.00 0.00 50 1023.5
20260906115543 65 27 3.0 5.0 0.00 0.00 0.00 48 1023.6
20260906115043 65 15 2.0 4.0 0.00 0.00 0.00 48 1023.6
20260906114554 66 26 2.0 4.0 0.00 0.00 0.00 47 1023.5
20260906114043 66 47 2.0 4.0 0.00 0.00 0.00 47 1023.4
20260906113542 67 39 1.0 4.0 0.00 0.00 0.00 46 1023.5
20260906113049 67 9 1.0 5.0 0.00 0.00 0.00 45 1023.5
20260906112542 67 341 3.0 5.0 0.00 0.00 0.00 45 1023.5
20260906112043 68 9 2.0 9.0 0.00 0.00 0.00 43 1023.5
20260906111557 68 16 4.0 9.0 0.00 0.00 0.00 43 1023.6
20260906111045 68 31 5.0 9.0 0.00 0.00 0.00 42 1023.5
20260906110543 68 36 4.0 9.0 0.00 0.00 0.00 42 1023.5
20260906110057 68 29 5.0 10.0 0.00 0.00 0.00 42 1023.5
20260906105543 68 36 6.0 10.0 0.00 0.00 0.00 42 1023.5
20260906105043 68 58 5.0 11.0 0.00 0.00 0.00 42 1023.4
20260906104557 68 24 5.0 11.0 0.00 0.00 0.00 42 1023.4
20260906104043 68 47 4.0 9.0 0.00 0.00 0.00 42 1023.4
20260906103542 68 52 4.0 9.0 0.00 0.00 0.00 42 1023.3
20260906103054 69 33 4.0 9.0 0.00 0.00 0.00 42 1023.3
20260906102543 69 45 4.0 9.0 0.00 0.00 0.00 42 1023.3
20260906102042 69 74 4.0 10.0 0.00 0.00 0.00 41 1023.3
20260906101553 69 22 6.0 11.0 0.00 0.00 0.00 41 1023.2
20260906101042 69 53 5.0 11.0 0.00 0.00 0.00 41 1023.3
20260906100543 69 40 6.0 10.0 0.00 0.00 0.00 41 1023.4
20260906100057 69 49 5.0 10.0 0.00 0.00 0.00 41 1023.3
20260906095543 69 46 5.0 10.0 0.00 0.00 0.00 42 1023.3
20260906095044 69 17 5.0 10.0 0.00 0.00 0.00 42 1023.2
20260906094605 69 25 4.0 9.0 0.00 0.00 0.00 42 1023.3
20260906094043 69 17 4.0 9.0 0.00 0.00 0.00 42 1023.2
20260906093543 69 30 4.0 9.0 0.00 0.00 0.00 42 1023.1
20260906093102 69 19 3.0 9.0 0.00 0.00 0.00 42 1023.1
20260906092546 69 34 4.0 10.0 0.00 0.00 0.00 42 1023.1
20260906092043 69 19 5.0 10.0 0.00 0.00 0.00 42 1023.1
20260906091601 69 23 5.0 10.0 0.00 0.00 0.00 42 1023.2
20260906091043 69 38 4.0 9.0 0.00 0.00 0.00 42 1023.1
20260906090543 69 31 3.0 9.0 0.00 0.00 0.00 42 1023.2
20260906090126 69 28 5.0 9.0 0.00 0.00 0.00 42 1023.1
20260906085547 69 29 5.0 10.0 0.00 0.00 0.00 42 1023.1
20260906085044 69 26 5.0 10.0 0.00 0.00 0.00 42 1023.0
20260906084603 69 15 5.0 10.0 0.00 0.00 0.00 42 1023.1
20260906084044 69 36 6.0 10.0 0.00 0.00 0.00 42 1023.1
20260906083543 69 24 5.0 9.0 0.00 0.00 0.00 43 1023.1
20260906083053 69 24 4.0 11.0 0.00 0.00 0.00 43 1023.2
20260906082542 69 45 5.0 11.0 0.00 0.00 0.00 43 1023.2
20260906082042 69 51 5.0 11.0 0.00 0.00 0.00 43 1023.1
20260906081552 69 34 4.0 9.0 0.00 0.00 0.00 43 1023.2
20260906081042 69 28 4.0 11.0 0.00 0.00 0.00 43 1023.2
20260906080543 69 52 5.0 11.0 0.00 0.00 0.00 43 1023.2
20260906075543 69 33 4.0 13.0 0.00 0.00 0.00 43 1023.2
20260906075043 69 46 7.0 13.0 0.00 0.00 0.00 44 1023.3
20260906074554 69 27 6.0 10.0 0.00 0.00 0.00 44 1023.2
20260906074043 69 30 4.0 9.0 0.00 0.00 0.00 44 1023.3
20260906073546 69 21 5.0 9.0 0.00 0.00 0.00 44 1023.4
20260906073053 69 48 4.0 7.0 0.00 0.00 0.00 44 1023.4
20260906072543 69 51 3.0 7.0 0.00 0.00 0.00 44 1023.4
20260906072043 69 59 4.0 6.0 0.00 0.00 0.00 44 1023.5
20260906071553 69 63 3.0 7.0 0.00 0.00 0.00 44 1023.5
20260906071043 69 52 3.0 7.0 0.00 0.00 0.00 44 1023.5
20260906070543 69 56 3.0 7.0 0.00 0.00 0.00 44 1023.5
20260906070052 69 53 3.0 5.0 0.00 0.00 0.00 44 1023.5
20260906065543 69 46 3.0 8.0 0.00 0.00 0.00 44 1023.6
20260906065044 69 61 4.0 8.0 0.00 0.00 0.00 44 1023.6
20260906064549 69 50 3.0 6.0 0.00 0.00 0.00 44 1023.6
20260906064043 68 78 4.0 6.0 0.00 0.00 0.00 44 1023.6
20260906063542 68 72 3.0 6.0 0.00 0.00 0.00 44 1023.6
20260906063057 68 63 3.0 7.0 0.00 0.00 0.00 44 1023.6
20260906062542 69 80 4.0 7.0 0.00 0.00 0.00 45 1023.7
20260906062043 69 95 2.0 6.0 0.00 0.00 0.00 45 1023.6
20260906061607 69 49 3.0 5.0 0.00 0.00 0.00 44 1023.6
20260906061042 68 60 3.0 6.0 0.00 0.00 0.00 45 1023.5
20260906060545 68 74 3.0 7.0 0.00 0.00 0.00 45 1023.7
20260906060103 69 92 3.0 8.0 0.00 0.00 0.00 45 1023.6
20260906055543 69 69 4.0 8.0 0.00 0.00 0.00 46 1023.5
20260906055043 69 89 5.0 8.0 0.00 0.00 0.00 46 1023.5
20260906054605 69 65 5.0 8.0 0.00 0.00 0.00 47 1023.5
20260906054043 69 96 3.0 7.0 0.00 0.00 0.00 46 1023.2
20260906053542 69 94 1.0 6.0 0.00 0.00 0.00 46 1023.2
20260906053119 70 97 2.0 6.0 0.00 0.00 0.00 46 1023.3
20260906052544 70 97 1.0 6.0 0.00 0.00 0.00 46 1023.2
20260906052043 70 96 2.0 6.0 0.00 0.00 0.00 46 1023.2
20260906051551 70 98 2.0 5.0 0.00 0.00 0.00 46 1023.2
20260906051042 70 101 1.0 4.0 0.00 0.00 0.00 46 1023.4
20260906050543 70 105 2.0 4.0 0.00 0.00 0.00 46 1023.3
20260906050049 70 98 1.0 3.0 0.00 0.00 0.00 46 1023.4
20260906045546 70 86 1.0 5.0 0.00 0.00 0.00 46 1023.4
20260906045043 71 105 1.0 5.0 0.00 0.00 0.00 46 1023.4
20260906044555 71 130 1.0 7.0 0.00 0.00 0.00 47 1023.4
20260906044043 71 136 1.0 7.0 0.00 0.00 0.00 46 1023.4
20260906043543 71 135 2.0 8.0 0.00 0.00 0.00 46 1023.4
20260906043103 71 144 3.0 8.0 0.00 0.00 0.00 46 1023.4
20260906042543 72 138 3.0 8.0 0.00 0.00 0.00 46 1023.4
20260906042043 72 142 3.0 6.0 0.00 0.00 0.00 45 1023.4
20260906041555 72 107 2.0 7.0 0.00 0.00 0.00 45 1023.5
20260906041044 72 134 2.0 7.0 0.00 0.00 0.00 45 1023.5
20260906040542 73 131 3.0 7.0 0.00 0.00 0.00 44 1023.5
20260906035543 73 129 4.0 9.0 0.00 0.00 0.00 40 1023.4
20260906035043 73 157 5.0 9.0 0.00 0.00 0.00 40 1023.3
20260906034557 73 163 3.0 6.0 0.00 0.00 0.00 38 1023.2
20260906034043 73 138 1.0 6.0 0.00 0.00 0.00 38 1023.1
20260906033543 73 0 1.0 10.0 0.00 0.00 0.00 38 1023.1
20260906033104 73 163 1.0 10.0 0.00 0.00 0.00 37 1023.0
20260906032542 73 220 3.0 8.0 0.00 0.00 0.00 38 1023.0
20260906032043 73 255 3.0 12.0 0.00 0.00 0.00 38 1023.1
20260906031601 73 157 5.0 12.0 0.00 0.00 0.00 37 1023.1
20260906031043 74 121 4.0 8.0 0.00 0.00 0.00 36 1022.9
20260906030544 74 131 3.0 7.0 0.00 0.00 0.00 36 1022.7
20260906030101 74 142 2.0 6.0 0.00 0.00 0.00 35 1022.7
20260906025543 75 130 2.0 7.0 0.00 0.00 0.00 35 1022.6
20260906025043 75 136 3.0 7.0 0.00 0.00 0.00 35 1022.4
20260906024621 75 134 3.0 7.0 0.00 0.00 0.00 34 1022.3
20260906024043 76 140 2.0 5.0 0.00 0.00 0.00 34 1022.2
20260906023543 76 128 2.0 7.0 0.00 0.00 0.00 34 1022.2
20260906023106 76 175 2.0 7.0 0.00 0.00 0.00 33 1022.2
20260906022542 77 138 2.0 6.0 0.00 0.00 0.00 33 1022.2
20260906022045 77 143 1.0 6.0 0.00 0.00 0.00 33 1022.1
20260906021559 77 156 3.0 6.0 0.00 0.00 0.00 32 1022.0
20260906021043 78 162 2.0 6.0 0.00 0.00 0.00 32 1022.0
20260906020543 78 136 2.0 7.0 0.00 0.00 0.00 32 1021.9
20260906020105 78 151 2.0 11.0 0.00 0.00 0.00 31 1021.8
20260906015543 79 165 4.0 12.0 0.00 0.00 0.00 31 1021.8
20260906015043 79 171 4.0 12.0 0.00 0.00 0.00 30 1021.7
20260906014555 80 180 3.0 10.0 0.00 0.00 0.00 30 1021.7
20260906014043 80 195 4.0 11.0 0.00 0.00 0.00 30 1021.7
20260906013543 80 166 6.0 11.0 0.00 0.00 0.00 29 1021.7
20260906013053 81 178 4.0 10.0 0.00 0.00 0.00 29 1021.7
20260906012542 81 169 4.0 10.0 0.00 0.00 0.00 29 1021.7
20260906012043 82 197 5.0 11.0 0.00 0.00 0.00 28 1021.7
20260906011559 82 196 5.0 12.0 0.00 0.00 0.00 28 1021.7
20260906011044 83 244 6.0 12.0 0.00 0.00 0.00 28 1021.8
20260906010542 83 219 6.0 13.0 0.00 0.00 0.00 27 1021.7
20260906010130 84 219 5.0 13.0 0.00 0.00 0.00 27 1021.7
20260906005542 85 217 4.0 12.0 0.00 0.00 0.00 26 1021.7
20260906005043 85 235 4.0 11.0 0.00 0.00 0.00 26 1021.7
20260906004552 86 227 3.0 10.0 0.00 0.00 0.00 26 1021.7
20260906004042 86 235 5.0 12.0 0.00 0.00 0.00 26 1021.7
20260906003543 86 251 7.0 13.0 0.00 0.00 0.00 25 1021.8
20260906003050 87 260 7.0 13.0 0.00 0.00 0.00 25 1021.7
20260906002543 87 205 4.0 11.0 0.00 0.00 0.00 25 1021.6
20260906002043 87 218 3.0 8.0 0.00 0.00 0.00 26 1021.7
20260906001602 87 0 2.0 8.0 0.00 0.00 0.00 27 1021.7
20260906001043 86 288 2.0 7.0 0.00 0.00 0.00 29 1021.8
20260906000543 86 313 3.0 8.0 0.00 0.00 0.00 30 1021.7
20260906000057 85 320 1.0 9.0 0.00 0.00 0.00 30 1021.7
20260905235543 85 330 4.0 9.0 0.00 0.00 0.00 30 1021.6
20260905235043 85 352 2.0 8.0 0.00 0.00 0.00 30 1021.5
20260905234555 85 0 2.0 8.0 0.00 0.00 0.00 29 1021.6
20260905234042 85 352 3.0 8.0 0.00 0.00 0.00 30 1021.6
20260905233543 85 308 4.0 9.0 0.00 0.00 0.00 30 1021.7
20260905233101 86 15 4.0 10.0 0.00 0.00 0.00 30 1021.6
20260905232547 87 15 5.0 10.0 0.00 0.00 0.00 29 1021.7
20260905232042 88 320 5.0 17.0 0.00 0.00 0.00 28 1021.7
20260905231559 90 316 6.0 17.0 0.00 0.00 0.00 26 1021.7
20260905231042 92 321 10.0 17.0 0.00 0.00 0.00 26 1021.6
20260905230547 94 86 5.0 11.0 0.00 0.00 0.00 24 1021.2
20260905230107 94 219 2.0 8.0 0.00 0.00 0.00 23 1021.6
20260905225542 93 0 3.0 12.0 0.00 0.00 0.00 23 1021.7
20260905225042 93 186 4.0 15.0 0.00 0.00 0.00 23 1021.7
20260905224603 93 315 7.0 15.0 0.00 0.00 0.00 23 1021.7
20260905224042 93 267 4.0 12.0 0.00 0.00 0.00 23 1021.6
20260905223542 93 292 6.0 13.0 0.00 0.00 0.00 23 1021.7
20260905223100 93 217 4.0 13.0 0.00 0.00 0.00 23 1021.7
20260905222543 93 284 5.0 13.0 0.00 0.00 0.00 23 1021.7
20260905222043 93 261 5.0 13.0 0.00 0.00 0.00 24 1021.7
20260905221559 93 284 4.0 13.0 0.00 0.00 0.00 23 1021.9
20260905221046 93 289 0.0 8.0 0.00 0.00 0.00 23 1021.9
20260905220542 93 148 1.0 11.0 0.00 0.00 0.00 23 1021.9
20260905220054 92 225 4.0 12.0 0.00 0.00 0.00 24 1021.9
20260905215546 92 265 6.0 12.0 0.00 0.00 0.00 24 1022.0
20260905215045 92 281 4.0 11.0 0.00 0.00 0.00 24 1022.0
20260905214600 92 312 3.0 14.0 0.00 0.00 0.00 25 1022.0